Location: ??????
(42.0089°N, 44.3281°E)
Time: 18:47:16
(UTC+00:00)

Cosmos 1892 Rocket - Pass Details

Date: 24 October 2021
Orbit: 605 x 634 km, 82.5° (Epoch: 01 December)

Event Time Altitude Azimuth Distance (km) Brightness Sun altitude
Rises 14:43:07 0° 351° (N) 2,926 7.0 -7.3°
Reaches altitude 10° 14:45:22 10° 351° (N) 2,010 6.2 -7.7°
Maximum altitude 14:49:49 87° 266° (W) 629 3.6 -8.5°
Drops below altitude 10° 14:54:13 10° 175° (S) 1,976 6.2 -9.3°
Sets 14:56:25 0° 175° (S) 2,871 7.0 -9.7°
